Погода в Арамиле

Россия / Свердловская область     56°41′40″N   60°50′03″E
темп.,
°C
ветер,
м/с
пор.,
м/с
влажн.,
%
обл.,
%
осадки,
мм/ч
давл.,
гПа
погр.,
м
5 марта, пт
пт523:00−10ююз399261 0.0 996245
02:00−7ю41191100 0.0 993603
05:00−4ююз51391100 0.7 9901092
08:00−6зюз6148550 0.1 991982
11:00−4зюз7128171 0.1 9951002
14:00−3з6127461 0.0 9971118
17:00−5зюз4107865 0.0 998973
20:00−9з3889100 0.0 1000232
6 марта, сб
сб623:00−11з41291100 0.0 1003445
02:00−13з4139121 0.0 1005448
05:00−15з4119311 0.0 1007283
08:00−15зюз413900 0.0 1007366
11:00−9з5118210 0.0 1008993
14:00−8з61277100 0.1 10081706
17:00−8з51178100 0.2 10091578
20:00−14з3108967 0.0 1010309
7 марта, вс
вс723:00−17з239435 0.0 101267
02:00−19зюз22970 0.0 101220
05:00−20зюз129718 0.0 101220
08:00−20юз0197100 0.0 101120
11:00−13юв118763 0.0 1010261
14:00−10в118498 0.0 1007513
17:00−10св128499 0.1 1006546
20:00−14сз2295100 0.0 100621
8 марта, пн
пн823:00−16зсз249696 0.1 100890
02:00−19з379684 0.0 1008135
05:00−21з239742 0.0 100957
08:00−21юз229519 0.0 100825
11:00−14ю369143 0.0 1007271
14:00−10ююв4891100 0.3 1004491
17:00−10ююв4891100 0.4 1002450
20:00−10ююв31094100 0.3 1002300
9 марта, вт
вт923:00−8зюз6148399 0.3 1004730
02:00−13юз239218 0.0 100660
05:00−13ююв359458 0.0 1004130
08:00−11юв41194100 1.0 998611
11:00−6зюз81381100 3.8 9941164
14:00−7зюз5883100 0.2 9951036
17:00−7зсз71291100 1.1 10001316
20:00−10зсз51286100 0.4 1005702